Nantucket, MA

8:03 PM EDT on May 22, 2018 (GMT -0400)
Nantucket Memorial

Weather History for KACK - December, 2012

Change the Weather History Date:

Monday, December 24, 2012

  Actual Average Record
Temperature  
Mean Temperature 34 °F -  
Max Temperature 39 °F 41 °F 60 °F (2015)
Min Temperature 30 °F 27 °F 11 °F (1975)
Degree Days  
Heating Degree Days 30    
Moisture  
Dew Point 25 °F    
Average Humidity 67    
Maximum Humidity 86    
Minimum Humidity 53    
Precipitation  
Precipitation 0.00 in - - ()
Sea Level Pressure  
Sea Level Pressure 30.02 in    
Wind  
Wind Speed 7 mph (WNW)    
Max Wind Speed 14 mph    
Max Gust Speed -    
Visibility 10 miles    
Events Rain    
Averages and records for this station are not official NWS values.
T = Trace of Precipitation, MM = Missing Value Source: NWS Daily Summary

Daily Weather History Graph

Daily Weather History Graph

Search for Another Location

Airport or City:

Astronomy

Dec. 24, 2012 Rise Set
Actual Time 7:04 AM EST 4:16 PM EST
Civil Twilight 6:32 AM EST 4:47 PM EST
Nautical Twilight 5:57 AM EST 5:22 PM EST
Astronomical Twilight 5:24 AM EST 5:55 PM EST
Moon 1:42 PM EST (12/24) 3:38 AM EST (12/24)
Length of Visible Light 10h 14m
Length of Day
9h 12m
Waxing Gibbous, 88% of the Moon is Illuminated
Dec 24
Waxing Gibbous
Dec 28
Full
Jan 4
Last Quarter
Jan 11
New
Jan 18
First Quarter

Hourly Weather History & Observations

Time (EST) Temp. Windchill Dew Point Humidity Pressure Visibility Wind Dir Wind Speed Gust Speed Precip Events Conditions
12:53 AM 35.1 °F 28.6 °F 23.0 °F 61% 29.91 in 10.0 mi West 8.1 mph - N/A   Clear
1:53 AM 34.0 °F 28.0 °F 24.1 °F 67% 29.93 in 10.0 mi WNW 6.9 mph - N/A   Clear
2:53 AM 34.0 °F 27.2 °F 23.0 °F 64% 29.94 in 10.0 mi WNW 8.1 mph - N/A   Clear
3:53 AM 33.1 °F 28.7 °F 23.0 °F 66% 29.94 in 10.0 mi WNW 4.6 mph - N/A   Clear
4:53 AM 32.0 °F 24.8 °F 24.1 °F 73% 29.95 in 10.0 mi WNW 8.1 mph - N/A   Clear
5:53 AM 33.1 °F 27.7 °F 23.0 °F 66% 29.97 in 10.0 mi WNW 5.8 mph - N/A   Clear
6:53 AM 32.0 °F 25.6 °F 23.0 °F 69% 30.00 in 10.0 mi WNW 6.9 mph - N/A   Clear
7:53 AM 34.0 °F 28.8 °F 24.1 °F 67% 30.03 in 10.0 mi WNW 5.8 mph - N/A   Clear
8:53 AM 39.0 °F 32.8 °F 25.0 °F 57% 30.05 in 10.0 mi WNW 9.2 mph - N/A   Clear
9:53 AM 39.0 °F 31.0 °F 24.1 °F 55% 30.07 in 10.0 mi NW 13.8 mph - N/A   Clear
10:53 AM 39.0 °F 31.4 °F 24.1 °F 55% 30.07 in 10.0 mi West 12.7 mph - N/A   Clear
11:53 AM 39.9 °F 34.5 °F 24.1 °F 53% 30.05 in 10.0 mi NW 8.1 mph - N/A   Clear
12:53 PM 39.0 °F 33.4 °F 24.1 °F 55% 30.04 in 10.0 mi SW 8.1 mph - N/A   Clear
1:53 PM 39.9 °F 33.9 °F 25.0 °F 55% 30.04 in 10.0 mi WSW 9.2 mph - N/A   Clear
2:53 PM 39.0 °F 33.4 °F 24.1 °F 55% 30.04 in 10.0 mi WNW 8.1 mph - N/A   Clear
3:53 PM 36.0 °F - 25.0 °F 64% 30.06 in 10.0 mi Calm Calm - N/A   Clear
4:53 PM 35.1 °F 31.0 °F 25.0 °F 67% 30.06 in 10.0 mi West 4.6 mph - N/A   Clear
5:53 PM 32.0 °F - 25.0 °F 75% 30.05 in 10.0 mi Calm Calm - N/A   Clear
6:53 PM 32.0 °F - 26.1 °F 79% 30.07 in 10.0 mi Calm Calm - N/A   Clear
7:53 PM 30.9 °F - 26.1 °F 82% 30.08 in 10.0 mi Calm Calm - N/A   Clear
8:53 PM 35.1 °F 31.0 °F 28.0 °F 76% 30.05 in 10.0 mi ENE 4.6 mph - N/A   Partly Cloudy
9:53 PM 36.0 °F 31.1 °F 28.0 °F 73% 30.05 in 10.0 mi East 5.8 mph - N/A   Overcast
10:53 PM 37.0 °F 34.5 °F 30.0 °F 76% 30.03 in 10.0 mi ESE 3.5 mph - N/A   Overcast
11:53 PM 37.0 °F 34.5 °F 33.1 °F 86% 30.00 in 10.0 mi ENE 3.5 mph - 0.00 in Rain Light Rain